FLOCK 3P-47

Last updated on Wed Feb 14 2018 16:20:33 GMT+0000 (Coordinated Universal Time)

1 42032U 17008CN 18045.47510809 .00001466 00000-0 63621-4 0 9998 2 42032 97.4658 111.0646 0009649 86.1379 274.0961 15.23912724 55244
UTC large
Height (km)
Speed (km/s)
/
Latitude / Longitude
Inclination (degrees)
Orbital Period (minutes)
Azimuth
Elevation
Range (km)
Doppler Factor

Next 0 passes for location: London (51.5072 / 0.1276)

Sorry there are no passes over London.